TimeEDT,TemperatureF,Dew PointF,Humidity,Sea Level PressureIn,VisibilityMPH,Wind Direction,Wind SpeedMPH,Gust SpeedMPH,PrecipitationIn,Events,Conditions,WindDirDegrees,DateUTC
12:15 AM,73.4,64.4,73,29.95,10.0,WSW,10.4,16.1,N/A,,Clear,240,2013-08-27 04:15:00
12:35 AM,73.4,64.4,73,29.94,10.0,WSW,12.7,-,N/A,,Clear,240,2013-08-27 04:35:00
12:55 AM,73.4,64.4,73,29.93,10.0,WSW,8.1,-,N/A,,Mostly Cloudy,250,2013-08-27 04:55:00
1:15 AM,73.4,66.2,78,29.93,10.0,West,8.1,-,N/A,,Overcast,270,2013-08-27 05:15:00
1:35 AM,73.4,66.2,78,29.93,10.0,West,5.8,-,N/A,,Overcast,260,2013-08-27 05:35:00
1:55 AM,71.6,66.2,83,29.93,10.0,West,4.6,-,N/A,,Mostly Cloudy,270,2013-08-27 05:55:00
2:15 AM,71.6,66.2,83,29.92,10.0,West,3.5,-,N/A,,Mostly Cloudy,260,2013-08-27 06:15:00
2:35 AM,69.8,68.0,94,29.92,10.0,WSW,3.5,-,N/A,,Mostly Cloudy,250,2013-08-27 06:35:00
2:55 AM,69.8,68.0,94,29.91,10.0,WSW,3.5,-,N/A,,Mostly Cloudy,240,2013-08-27 06:55:00
3:15 AM,69.8,68.0,94,29.90,10.0,WSW,3.5,-,N/A,,Overcast,240,2013-08-27 07:15:00
3:35 AM,69.8,68.0,94,29.90,10.0,WSW,4.6,-,N/A,,Mostly Cloudy,250,2013-08-27 07:35:00
3:55 AM,69.8,68.0,94,29.88,10.0,WSW,4.6,-,N/A,,Overcast,250,2013-08-27 07:55:00
4:15 AM,69.8,66.2,88,29.88,10.0,SW,4.6,-,N/A,,Overcast,230,2013-08-27 08:15:00
4:35 AM,69.8,66.2,88,29.88,10.0,WSW,5.8,-,N/A,,Overcast,240,2013-08-27 08:35:00
4:55 AM,69.8,66.2,88,29.88,10.0,WSW,6.9,-,N/A,,Overcast,240,2013-08-27 08:55:00
5:15 AM,71.6,66.2,83,29.88,10.0,WSW,6.9,-,N/A,,Overcast,250,2013-08-27 09:15:00
5:35 AM,71.6,66.2,83,29.87,10.0,WSW,5.8,-,N/A,,Overcast,250,2013-08-27 09:35:00
5:55 AM,71.6,66.2,83,29.87,10.0,WSW,6.9,-,N/A,,Overcast,250,2013-08-27 09:55:00
6:15 AM,71.6,66.2,83,29.87,10.0,WSW,8.1,-,N/A,,Mostly Cloudy,250,2013-08-27 10:15:00
6:35 AM,71.6,66.2,83,29.87,10.0,WSW,6.9,-,N/A,,Partly Cloudy,250,2013-08-27 10:35:00
6:55 AM,71.6,66.2,83,29.88,10.0,West,6.9,-,N/A,,Clear,260,2013-08-27 10:55:00
7:15 AM,71.6,66.2,83,29.88,10.0,West,8.1,-,N/A,,Mostly Cloudy,260,2013-08-27 11:15:00
7:35 AM,71.6,66.2,83,29.88,10.0,West,6.9,-,N/A,,Overcast,270,2013-08-27 11:35:00
7:55 AM,73.4,66.2,78,29.88,10.0,West,8.1,-,N/A,,Scattered Clouds,270,2013-08-27 11:55:00
8:15 AM,75.2,66.2,73,29.89,10.0,WNW,10.4,16.1,N/A,,Clear,290,2013-08-27 12:15:00
8:35 AM,75.2,68.0,78,29.89,10.0,WNW,11.5,-,N/A,,Clear,300,2013-08-27 12:35:00
8:55 AM,77.0,66.2,69,29.89,10.0,NW,13.8,21.9,N/A,,Scattered Clouds,320,2013-08-27 12:55:00
9:15 AM,78.8,68.0,69,29.88,10.0,WNW,15.0,18.4,N/A,,Mostly Cloudy,300,2013-08-27 13:15:00
9:35 AM,77.0,66.2,69,29.89,10.0,NW,15.0,19.6,N/A,,Scattered Clouds,320,2013-08-27 13:35:00
9:55 AM,78.8,66.2,65,29.89,10.0,NW,11.5,19.6,N/A,,Scattered Clouds,320,2013-08-27 13:55:00
10:15 AM,78.8,66.2,65,29.89,10.0,NW,11.5,17.3,N/A,,Scattered Clouds,310,2013-08-27 14:15:00
10:35 AM,78.8,66.2,65,29.88,10.0,NW,10.4,-,N/A,,Mostly Cloudy,320,2013-08-27 14:35:00
10:55 AM,80.6,66.2,61,29.89,10.0,WNW,15.0,20.7,N/A,,Mostly Cloudy,300,2013-08-27 14:55:00
11:15 AM,78.8,66.2,65,29.89,10.0,NNW,11.5,16.1,N/A,,Mostly Cloudy,340,2013-08-27 15:15:00
11:35 AM,80.6,66.2,61,29.90,10.0,NNW,10.4,-,N/A,,Overcast,340,2013-08-27 15:35:00
11:55 AM,80.6,68.0,65,29.89,10.0,NW,11.5,-,N/A,,Overcast,310,2013-08-27 15:55:00
12:15 PM,82.4,66.2,58,29.89,10.0,NNW,9.2,17.3,N/A,,Mostly Cloudy,340,2013-08-27 16:15:00
12:35 PM,82.4,66.2,58,29.89,10.0,NW,9.2,-,N/A,,Scattered Clouds,320,2013-08-27 16:35:00
12:55 PM,82.4,66.2,58,29.89,10.0,NNW,11.5,18.4,N/A,,Mostly Cloudy,340,2013-08-27 16:55:00
1:15 PM,84.2,66.2,55,29.89,10.0,North,9.2,-,N/A,,Mostly Cloudy,360,2013-08-27 17:15:00
1:35 PM,84.2,66.2,55,29.88,10.0,North,10.4,-,N/A,,Scattered Clouds,350,2013-08-27 17:35:00
1:55 PM,84.2,66.2,55,29.88,10.0,NNW,12.7,-,N/A,,Mostly Cloudy,340,2013-08-27 17:55:00
2:15 PM,84.2,66.2,55,29.88,10.0,North,12.7,16.1,N/A,,Mostly Cloudy,350,2013-08-27 18:15:00
2:35 PM,84.2,66.2,55,29.87,10.0,NNW,17.3,23.0,N/A,,Scattered Clouds,330,2013-08-27 18:35:00
2:55 PM,86.0,66.2,51,29.87,10.0,North,10.4,-,N/A,,Clear,350,2013-08-27 18:55:00
3:15 PM,87.8,66.2,49,29.86,10.0,North,10.4,17.3,N/A,,Clear,10,2013-08-27 19:15:00
3:35 PM,87.8,66.2,49,29.87,10.0,North,8.1,-,N/A,,Scattered Clouds,350,2013-08-27 19:35:00
3:55 PM,86.0,64.4,48,29.86,10.0,North,5.8,-,N/A,,Partly Cloudy,350,2013-08-27 19:55:00
4:15 PM,87.8,66.2,49,29.86,10.0,Calm,Calm,-,N/A,,Scattered Clouds,0,2013-08-27 20:15:00
4:35 PM,86.0,66.2,51,29.85,10.0,NW,5.8,-,N/A,,Scattered Clouds,320,2013-08-27 20:35:00
4:55 PM,87.8,64.4,46,29.86,10.0,NW,5.8,-,N/A,,Scattered Clouds,320,2013-08-27 20:55:00
5:15 PM,86.0,66.2,51,29.87,10.0,NW,8.1,-,N/A,,Scattered Clouds,310,2013-08-27 21:15:00
5:35 PM,86.0,66.2,51,29.87,10.0,NW,6.9,-,N/A,,Partly Cloudy,310,2013-08-27 21:35:00
5:55 PM,84.2,66.2,55,29.87,10.0,NNW,4.6,-,N/A,,Partly Cloudy,330,2013-08-27 21:55:00
6:15 PM,84.2,66.2,55,29.87,10.0,NW,6.9,-,N/A,,Clear,310,2013-08-27 22:15:00
6:35 PM,84.2,66.2,55,29.87,10.0,NW,4.6,-,N/A,,Clear,310,2013-08-27 22:35:00
6:55 PM,84.2,68.0,58,29.87,10.0,WNW,4.6,-,N/A,,Clear,300,2013-08-27 22:55:00
7:15 PM,82.4,68.0,62,29.88,10.0,West,3.5,-,N/A,,Partly Cloudy,280,2013-08-27 23:15:00
7:35 PM,80.6,69.8,70,29.88,10.0,Calm,Calm,-,N/A,,Partly Cloudy,0,2013-08-27 23:35:00
7:55 PM,78.8,69.8,74,29.89,10.0,Calm,Calm,-,N/A,,Clear,0,2013-08-27 23:55:00
8:15 PM,75.2,69.8,83,29.89,10.0,Calm,Calm,-,N/A,,Clear,0,2013-08-28 00:15:00
8:35 PM,75.2,69.8,83,29.90,10.0,Calm,Calm,-,N/A,,Clear,0,2013-08-28 00:35:00
8:55 PM,75.2,69.8,83,29.90,10.0,Calm,Calm,-,N/A,,Clear,0,2013-08-28 00:55:00
9:15 PM,73.4,69.8,88,29.90,10.0,South,3.5,-,N/A,,Clear,190,2013-08-28 01:15:00
9:35 PM,71.6,69.8,94,29.90,10.0,Calm,Calm,-,N/A,,Clear,0,2013-08-28 01:35:00
9:55 PM,71.6,68.0,88,29.90,10.0,Calm,Calm,-,N/A,,Clear,0,2013-08-28 01:55:00
10:15 PM,71.6,68.0,88,29.91,10.0,Calm,Calm,-,N/A,,Clear,0,2013-08-28 02:15:00
10:35 PM,69.8,66.2,88,29.91,10.0,Calm,Calm,-,N/A,,Clear,0,2013-08-28 02:35:00
10:55 PM,69.8,68.0,94,29.91,10.0,Calm,Calm,-,N/A,,Clear,0,2013-08-28 02:55:00
11:15 PM,69.8,66.2,88,29.92,10.0,Calm,Calm,-,N/A,,Clear,0,2013-08-28 03:15:00
11:35 PM,69.8,66.2,88,29.92,10.0,Calm,Calm,-,N/A,,Clear,0,2013-08-28 03:35:00
11:55 PM,68.0,64.4,88,29.92,10.0,Calm,Calm,-,N/A,,Clear,0,2013-08-28 03:55:00